sat.trackr.live / text

‹ back to catalog

STARLINK-31873

NORAD 59790 · 2024-093J

PAYLOAD ACTIVE UNKNOWN

§ Identity

Operator
Country
US
Launch date
2024-05-18
Launch site
AFETR
Launch vehicle
Mass (kg)
RCS (m²)

Purposes: comms

External: N2YO · Heavens-Above · Gunter

§ Orbital elements

Epoch: 2026-05-25T00:55:02.856000Z

Period
94.27 min
Inclination
43.0033°
Eccentricity
0.0001676
Mean motion
15.27574230 rev/d
Perigee alt
481.9 km
Apogee alt
484.2 km
Semi-major
6,861.2 km
B*
1.2152e-5
RAAN
137.5755°
Arg perigee
285.0496°
Mean anomaly
75.0170°
Rev number
11,437

§ Raw data

STARLINK-318731 59790U 24093J   26145.03822750  .00000072  00000+0  12152-4 0  99962 59790  43.0033 137.5755 0001676 285.0496  75.0170 15.27574230114374

JSON: /api/v1/satellites/59790 · /tle

For live sub-satellite position, see the globe view (requires WebGL).

§ Visibility from observer

Set your observer location to see the next 7 days of passes ≥ 10°. The values pass through the URL so the page stays shareable.

No JS? Fill the form by hand. The geolocation button needs JavaScript.